SCP
0 0 0 0 0 -0 -0 0 0 0 0 0 0 0 0 0 0 0 0 0 0 0 -0 -0 -0 -0 -0 -0 -0 -0 -0 -0 -0 -0 0 0 0 0 0 0 0 0 0 0 0 0 0 0 0
0 0 0 0 0 -0 -0 0 0 0 0 0 0 0 0 0 0 0 0 0 0 0 0 -0 -0 -0 -0 -0 -0 -0 -0 -0 -0 -0 -0 0 0 0 0 0 0 0 0 0 0 0 0 0 0
0 0 0 0 -0 0 0 0 0 0 0 0 0 0 0 0 0 0 0 0 0 0 0 0 0 0 0 0 0 0 0 0 -0 -0 -0 -0 -0 0 0 0 0 0 0 0 0 0 0 0 0
0 0 0 0 0 0 0 0 0 0 0 0 0 0 0 0 0 0 0 0 0 0 0 0 0 0 0 0 0 0 0 0 0 0 0 0 -0 0 0 0 0 0 0 0 0 0 0 0 0
0 0 0 0 0 0 0 0 0 0 0 0 0 0 0 0 0 0 0 0 0 0 0 0 0 0 0 0 0 0 0 0 0 0 0 0 0 0 0 0 0 0 0 0 0 0 0 0 0
0 0 0 0 0 0 0 0 0 0 0 0 0 -0 -0 0 0 0 0 0 0 0 0 0 0 0 0 0 0 0 0 0 0 0 0 0 0 0 0 0 0 0 0 -0 -0 0 0 0 0
0 0 0 0 0 0 0 0 0 0 0 0 0 -0 -0 0 0 0 0 0 0 0 0 0 0 0 0 0 0 0 0 0 0 0 0 0 0 0 0 0 0 0 0 -0 -0 -0 0 0 0
0 0 0 0 0 0 0 0 0 0 0 0 0 0 0 0 0 0 0 0 0 0 0 0 0 0 0 0 0 0 0 0 0 0 0 0 0 0 0 0 0 0 0 -0 -0 -0 -0 0 0
0 0 0 0 0 0 0 0 0 0 0 0 0 0 0 0 0 0 0 0 0 0 0 0 0 0 0 0 0 0 0 0 0 0 0 0 0 0 0 0 0 0 0 0 -0 -0 -0 -0 0
0 0 0 0 0 0 0 0 0 0 0 0 0 0 0 0 0 0 0 0 0 0 0 0 0 0 0 0 0 0 0 0 0 0 0 0 0 0 0 0 0 0 0 0 -0 -0 -0 -0 -0
0 0 0 0 0 0 0 0 0 0 0 0 0 0 0 0 0 0 0 -0 -0 0 0 0 0 0 0 0 0 0 0 0 0 0 0 0 0 0 0 0 0 0 0 0 0 -0 -0 -0 -0
0 0 0 0 0 0 0 0 0 0 0 0 0 0 0 0 0 0 -0 -0 -0 0 0 0 0 0 0 0 0 0 0 0 0 0 0 0 0 0 0 0 0 0 0 0 0 0 0 -0 -0
0 0 0 0 0 0 0 0 0 0 0 0 0 0 0 0 0 0 0 -0 0 0 0 0 0 0 0 0 0 0 0 0 0 0 0 0 0 0 0 0 0 0 0 0 0 0 0 0 -0
0 0 0 0 0 0 0 0 0 0 0 0 0 0 0 0 0 0 0 0 0 0 0 0 0 0 0 0 0 0 0 0 0 0 0 0 0 0 0 0 0 0 0 0 0 0 0 0 -0
0 0 0 0 0 0 0 0 0 0 0 0 0 0 0 0 0 0 0 0 0 0 0 0 0 0 0 0 0 0 0 0 0 0 0 0 0 0 0 0 0 0 0 0 0 0 -0 -0 -0
0 0 0 0 0 0 0 0 0 0 0 0 0 0 0 0 0 0 0 0 0 0 0 0 0 0 0 0 0 0 0 0 0 0 0 0 0 0 0 0 0 0 0 0 0 0 0 0 0
0 0 0 0 0 0 0 0 0 0 0 0 0 0 0 0 0 0 0 0 0 0 0 0 0 0 0 0 0 1 1 1 0 0 0 0 0 0 0 0 0 0 0 0 0 0 0 0 0
0 0 0 0 0 0 0 0 0 0 0 0 0 0 0 0 0 0 0 0 0 0 0 0 0 0 0 0 0 1 1 1 1 0 0 0 0 0 0 0 0 0 0 0 0 0 0 0 0
0 0 0 0 0 0 0 0 0 0 0 0 0 0 0 0 0 0 0 0 0 0 0 0 0 0 0 0 0 0 1 1 1 1 1 0 0 0 0 0 0 0 0 0 0 0 0 0 0
0 0 0 0 0 0 0 0 0 0 0 0 0 0 0 0 0 0 0 0 0 0 0 0 0 0 0 0 0 0 0 0 1 1 1 1 0 0 0 0 0 0 0 0 0 0 0 0 0
0 0 0 0 0 0 0 0 0 0 0 0 0 0 0 0 0 0 0 0 0 0 0 0 0 0 0 0 0 0 0 0 0 1 1 1 0 0 0 0 0 0 0 0 0 0 0 0 0
0 0 0 0 0 0 0 0 0 0 0 0 0 0 0 0 0 0 0 0 0 0 0 0 0 0 0 0 0 0 0 0 0 0 0 0 0 0 0 0 0 0 0 0 0 0 0 0 0
0 0 0 0 0 0 0 0 0 0 0 0 0 0 0 0 0 0 0 0 0 0 0 0 0 0 0 0 0 0 0 0 0 0 0 0 0 0 0 0 0 0 0 0 0 0 0 0 0
0 0 0 0 0 0 0 0 0 0 0 0 0 0 0 0 0 0 0 0 0 0 0 0 0 0 0 0 0 0 0 0 0 0 0 0 0 0 0 0 0 0 0 0 0 0 0 0 0
0 0 0 0 0 0 0 0 0 0 0 0 0 0 0 0 0 0 0 0 0 0 0 0 0 0 0 0 0 0 0 0 0 0 0 0 0 0 0 0 0 0 0 0 0 0 0 0 0
0 0 0 0 0 0 0 0 0 0 0 0 0 0 0 0 0 0 0 0 0 0 0 0 0 0 0 0 0 0 0 0 0 0 0 0 0 0 0 0 0 0 0 0 0 0 0 0 0
0 0 0 0 0 0 0 0 0 0 0 0 0 0 0 0 0 0 0 0 0 0 0 0 0 0 0 0 0 0 0 0 0 0 0 0 0 0 0 0 0 0 0 0 0 0 0 0 0
0 0 0 0 0 0 0 0 0 0 0 0 0 0 0 0 0 0 0 0 0 0 0 0 0 0 0 0 0 0 0 0 0 0 0 0 0 0 0 0 0 0 0 0 0 0 0 0 0
0 0 0 0 0 0 0 0 0 0 0 0 0 0 0 0 0 0 0 0 0 0 0 0 0 0 0 0 0 0 0 0 0 0 0 0 0 0 0 0 0 0 0 0 0 0 0 0 0
0 0 0 0 0 0 0 0 0 0 0 0 0 0 0 0 0 0 0 0 0 0 0 0 0 0 0 0 0 0 0 0 0 0 0 0 0 0 0 0 0 0 0 0 0 0 0 0 0
Wind_Speed
2 4 3 3 6 6 3 3 2 2 3 2 3 5 5 3 2 2 2 8 10 10 8 10 13 12 12 11 11 10 10 10 10 11 11 11 11 11 11 10 9 9 8 7 7 7 7 7 7
3 4 3 5 7 4 2 3 1 1 3 3 4 5 5 3 3 5 5 6 11 11 8 9 13 12 12 11 11 10 10 10 10 10 10 10 10 10 10 9 9 9 8 8 7 7 7 7 6
4 2 4 5 4 3 1 1 0 3 3 2 4 4 4 3 5 4 5 9 10 9 7 9 14 13 12 11 10 10 10 9 9 9 9 9 9 8 9 8 8 8 8 7 7 6 6 6 6
3 3 5 5 2 1 2 1 3 4 3 4 4 4 3 3 5 6 10 11 10 8 7 8 14 13 12 11 11 10 10 9 9 9 8 8 8 8 8 8 8 7 7 7 6 6 6 5 6
3 4 6 4 3 3 1 1 2 3 2 3 3 4 3 3 7 12 12 11 10 8 6 8 14 13 12 12 11 10 10 10 9 9 8 8 8 8 7 7 7 6 6 6 5 5 5 5 5
4 5 5 3 5 4 3 2 2 3 3 3 4 3 2 2 8 10 10 9 8 9 7 7 14 14 13 12 12 11 11 10 10 9 9 8 7 7 7 6 6 5 5 5 4 3 4 4 4
4 5 3 1 3 4 5 3 3 3 3 3 4 4 1 2 5 9 8 7 6 6 6 5 7 9 13 13 12 12 11 10 10 10 9 8 8 7 7 6 6 5 4 3 2 2 3 4 4
4 5 3 2 2 4 6 4 2 2 2 3 4 6 4 5 6 6 6 5 5 4 5 5 5 5 6 7 12 12 12 11 11 10 9 9 8 7 7 6 5 5 4 3 2 1 2 3 4
4 6 2 0 1 3 6 5 4 3 4 3 2 2 3 9 9 7 5 4 4 5 4 4 5 5 5 5 9 10 11 11 10 9 10 8 3 3 3 5 6 5 4 3 2 1 1 2 4
5 4 2 2 2 1 5 6 6 5 6 6 5 6 8 10 8 6 6 7 7 7 6 4 5 5 4 6 4 4 4 5 5 4 4 3 3 2 3 4 7 6 5 4 3 2 1 3 2
3 3 2 1 1 2 3 8 11 7 7 6 5 4 8 7 4 3 3 4 6 6 6 7 6 5 5 4 3 3 2 3 4 5 5 3 3 2 2 1 2 3 3 1 1 2 1 1 1
3 1 1 2 3 4 5 5 10 15 9 8 7 9 9 7 4 3 3 3 2 3 5 6 7 6 6 5 3 3 3 3 4 5 6 4 3 3 2 2 2 2 1 1 1 1 1 1 1
3 2 3 6 10 11 13 11 9 15 14 14 17 18 15 12 10 8 8 7 4 3 4 5 6 7 6 5 4 5 5 5 5 4 5 6 4 4 3 3 2 3 2 2 2 2 2 2 2
2 5 6 7 8 8 16 14 11 13 13 17 19 16 14 13 12 12 12 11 9 7 5 4 5 6 6 6 6 5 5 5 5 5 6 7 5 5 4 4 3 3 3 3 3 3 2 2 2
3 5 7 8 5 3 9 16 14 12 13 17 17 15 14 13 13 13 12 10 9 8 7 5 4 5 6 7 7 6 5 5 6 6 7 8 7 6 5 4 4 4 3 3 2 2 2 2 2
5 5 5 6 9 6 10 10 13 11 13 15 14 14 13 12 12 11 11 10 10 9 9 8 6 4 4 6 6 5 5 6 6 5 6 8 9 8 6 5 5 4 3 3 3 2 2 2 1
7 4 3 5 11 8 11 9 10 11 13 14 13 12 12 12 13 12 11 10 10 10 9 9 8 6 5 5 6 6 5 5 5 5 6 7 8 8 7 5 5 4 3 3 4 3 2 2 2
1 2 3 4 6 12 13 10 10 11 13 13 12 12 12 12 12 12 12 10 9 9 8 8 8 7 6 4 3 4 5 5 5 5 5 6 6 8 7 5 4 4 3 3 3 3 2 2 3
3 4 3 3 5 9 11 10 8 10 12 13 12 12 12 12 11 10 11 11 10 9 9 8 8 8 6 4 3 3 4 4 4 5 6 6 6 6 6 5 4 4 4 4 5 3 3 2 2
4 4 3 3 5 7 8 8 5 7 10 10 10 11 12 14 13 13 12 11 10 9 9 8 8 8 6 4 3 3 3 3 4 5 6 7 7 6 6 6 5 4 3 3 4 3 3 2 3
3 3 1 1 4 5 4 4 6 5 6 9 10 9 10 13 14 14 13 11 11 10 10 9 9 9 8 6 4 3 2 2 2 4 5 6 7 7 6 6 6 5 5 4 4 4 5 3 2
2 2 1 1 3 2 3 0 5 7 8 12 13 12 12 12 12 12 12 12 11 10 9 8 8 8 8 7 4 4 3 3 3 3 3 4 5 7 7 7 7 6 5 5 5 4 3 3 3
3 3 1 2 4 4 7 3 4 6 9 14 14 13 12 12 12 13 12 12 11 9 8 8 8 7 8 7 6 4 3 2 2 2 2 3 3 5 6 6 6 6 6 6 6 5 5 3 4
2 3 5 6 6 5 5 2 4 5 9 13 13 13 13 13 13 12 12 10 9 8 7 7 7 7 7 7 6 5 4 3 2 1 2 2 2 2 3 4 4 5 5 6 6 6 6 5 4
8 6 5 6 6 2 3 2 2 5 7 9 12 13 12 11 12 13 13 12 11 10 9 8 7 7 7 7 6 6 6 5 3 2 0 2 2 2 3 3 3 4 4 5 5 5 6 6 5
4 5 5 2 1 1 3 2 4 5 6 7 8 10 11 12 12 12 12 11 11 10 9 8 7 7 7 6 6 6 6 4 4 4 2 2 1 1 2 2 2 3 3 4 4 4 4 4 5
3 4 2 6 3 2 2 3 4 5 8 9 11 12 13 13 13 13 12 11 11 10 9 9 8 7 7 7 6 6 7 6 5 5 4 3 3 2 3 3 2 2 2 2 3 3 3 3 4
4 3 5 5 3 1 2 3 4 9 12 12 12 12 13 12 12 12 12 11 10 9 8 8 7 7 7 7 7 6 6 6 6 5 6 5 4 3 3 3 2 2 2 2 3 3 2 3 2
5 5 6 5 3 4 1 3 3 6 8 9 11 10 10 10 11 10 10 10 10 9 9 9 9 8 8 8 7 7 7 6 6 6 6 5 5 4 4 3 2 3 3 2 2 3 3 2 1
4 3 3 4 2 2 2 4 5 4 6 7 9 9 9 8 8 8 9 9 9 9 9 9 9 9 8 7 7 7 7 7 7 7 6 6 6 5 5 4 4 4 3 3 3 3 3 3 2
Wind_Direction
182 129 106 64 53 50 34 336 311 21 53 42 68 89 101 110 162 182 124 138 136 144 152 154 153 150 147 144 139 135 131 129 127 127 126 127 128 129 128 128 126 124 122 121 120 121 121 116 114
142 136 77 60 76 63 341 310 332 30 124 124 69 72 71 67 71 106 132 143 141 145 147 151 154 153 151 149 147 144 140 137 133 131 130 129 129 130 130 130 130 128 127 124 121 121 118 111 107
151 129 82 67 82 137 212 290 138 77 91 83 71 59 78 104 126 139 153 144 142 144 144 157 156 157 156 155 154 151 146 142 139 136 134 133 133 132 134 133 131 131 129 127 124 121 118 113 105
119 57 53 64 56 241 249 253 151 121 71 56 85 63 56 88 143 141 138 145 144 144 146 162 160 162 162 161 160 158 154 150 147 145 142 140 139 140 138 138 135 134 132 129 125 121 119 114 106
71 73 53 40 1 332 306 272 156 111 71 59 81 81 39 17 112 131 141 150 150 148 153 167 166 168 169 169 168 166 163 161 158 156 152 150 148 146 145 142 138 137 134 128 122 122 120 113 104
60 65 67 22 341 339 356 10 94 86 89 89 94 89 37 112 129 143 149 151 154 156 158 169 174 175 177 177 177 176 173 171 170 166 163 162 158 154 151 146 143 142 137 128 119 110 110 104 93
92 80 85 33 348 358 357 358 100 108 116 149 124 99 77 170 158 146 145 142 148 158 162 174 179 181 185 186 185 184 182 181 179 176 175 173 170 167 164 159 156 152 146 141 127 105 94 87 79
106 92 70 24 25 343 334 360 70 95 104 106 108 134 182 195 151 131 123 129 147 163 175 180 182 181 185 190 193 191 189 189 187 185 185 185 183 181 180 174 175 175 174 175 162 115 79 63 55
77 73 69 283 67 329 345 12 20 52 75 52 60 155 186 140 133 126 124 138 167 187 195 190 190 188 186 190 200 196 195 196 193 192 195 191 186 186 189 192 198 201 202 206 212 221 10 39 37
72 102 208 208 173 76 18 21 8 44 43 17 20 42 95 124 139 152 166 180 192 201 202 200 200 197 192 201 200 192 193 191 188 184 193 177 171 193 203 215 218 218 220 228 236 254 356 49 40
87 149 212 254 159 98 66 54 30 45 27 352 344 52 101 110 126 160 196 208 210 211 209 204 202 203 200 207 198 193 187 182 184 186 186 176 176 198 209 206 245 253 248 265 323 357 34 47 31
93 92 70 17 60 57 54 58 52 40 11 354 45 64 63 61 43 12 342 304 264 230 222 215 205 206 209 210 212 199 195 192 193 191 185 178 185 201 207 206 217 227 225 224 244 260 279 278 257
64 64 55 53 74 72 68 60 67 32 19 40 52 51 46 42 31 22 13 2 343 301 266 241 213 210 210 210 218 212 210 207 202 194 193 189 195 206 210 214 211 213 206 211 226 239 255 266 265
56 81 62 43 65 71 74 49 43 14 22 42 46 46 43 38 29 26 20 12 5 353 326 286 244 219 211 214 218 217 212 212 203 202 202 199 202 206 209 219 218 214 206 206 210 226 244 259 264
78 86 51 30 33 91 85 48 25 12 32 42 39 36 35 31 27 21 13 8 2 356 348 331 270 230 221 222 225 225 215 211 213 211 206 205 205 206 207 213 220 217 200 198 203 222 231 249 243
47 61 45 15 15 36 77 62 16 13 37 39 31 26 25 21 21 15 9 5 1 358 352 346 338 320 254 235 228 229 223 212 217 212 206 209 210 207 204 211 223 211 186 184 193 200 210 226 216
34 56 41 19 20 45 73 74 24 21 38 36 26 19 15 10 11 7 4 359 357 354 349 348 347 339 318 272 237 226 223 217 219 212 207 205 207 208 205 212 221 203 189 190 201 184 183 193 195
23 67 59 48 42 69 81 78 42 28 36 32 21 13 8 4 359 354 352 350 348 346 342 344 345 340 330 312 266 233 223 222 215 212 211 205 201 201 200 206 213 197 195 197 190 180 177 178 173
94 94 85 70 96 80 87 78 47 30 31 24 15 8 2 353 345 347 347 345 341 341 340 338 343 340 337 331 309 265 237 232 221 212 208 207 199 195 191 196 189 188 200 206 188 167 167 164 135
74 87 68 65 90 102 105 79 44 34 30 18 6 358 353 345 345 346 344 342 338 333 332 331 335 332 328 312 290 264 253 239 226 213 203 205 196 190 192 187 178 180 190 191 180 161 155 164 162
54 97 92 145 78 85 119 66 14 2 10 11 7 354 349 343 340 338 337 334 333 331 331 329 329 330 325 317 303 294 269 253 230 214 204 199 192 187 181 182 178 179 181 189 184 176 168 174 192
351 347 298 197 119 62 2 125 358 334 342 359 356 352 346 340 337 335 333 330 328 324 323 324 326 327 327 326 322 312 287 271 258 241 212 191 190 186 177 176 177 179 178 182 189 181 182 168 177
303 338 35 103 118 71 23 61 333 337 350 346 343 343 341 337 334 333 330 324 321 322 324 324 324 329 331 333 333 325 312 293 280 252 193 185 182 179 178 172 173 182 183 187 186 178 186 186 180
342 57 61 53 70 57 347 32 348 344 332 330 334 337 337 335 334 332 330 328 325 328 332 329 330 332 337 343 346 347 341 333 320 275 198 175 159 157 171 169 179 186 186 190 190 183 188 194 193
34 64 41 23 34 29 334 56 328 307 320 321 325 329 332 334 336 337 339 341 338 340 340 341 342 340 345 351 356 357 357 358 358 339 180 146 141 152 171 169 184 191 190 187 181 181 187 190 192
31 84 118 140 154 312 4 16 288 295 314 319 325 330 338 342 341 340 340 340 340 342 344 347 351 351 354 358 1 4 8 11 15 20 41 71 93 118 129 138 148 155 169 180 176 177 181 184 192
57 58 120 118 107 66 357 333 315 333 339 341 342 344 343 341 341 342 344 345 342 343 348 351 356 0 1 3 7 15 17 20 25 30 38 47 54 73 92 109 125 134 139 150 157 167 172 174 185
83 102 73 82 107 62 345 344 316 324 328 334 337 338 336 339 344 347 347 347 345 348 352 359 3 4 6 9 14 21 19 21 24 32 37 38 41 51 65 75 91 95 116 150 150 145 150 157 172
20 50 76 82 98 126 16 303 262 284 304 316 320 326 328 337 343 345 347 349 349 358 4 8 9 13 14 14 16 19 20 21 25 29 28 32 38 43 52 61 79 79 75 88 108 111 115 120 135
94 81 114 117 95 106 134 276 282 289 298 305 312 320 326 330 335 338 341 347 356 5 7 10 13 17 15 14 19 22 20 22 26 27 25 28 35 37 42 48 59 64 67 71 87 104 108 119 134